Starlink 33750

operational
NORAD ID: 63513 Int'l Des: 2025-071 Owner: SPXS Country: US Constellation: starlink
LEOCIRCULAR

Über Starlink 33750

Beschreibung wird geladen...

Live-Position

3D-Globus wird geladen...

Nächste Überflüge

Höhenverlauf

Altitude vs Time

uPlot chart will show altitude changes over time

Zweizeiliger Elementsatz

1 63513U 25071W 25257.25201909 .00018784 00000-0 64440-3 0 9991
2 63513 53.1579 239.6190 0002568 89.7624 270.3671 15.30216201 25731
Epoch: 14. Sept. 2025 • Age: 29 hours

Aktueller Status

Höhe 488.5 km
Geschwindigkeit 7.62 km/s
Subsatellitenpunkt -37.65°S, 74.55°W
Startdatum 7. Apr. 2025
Alter 0.4 years
Typ internet

Technische Details

Klassifizierung Payload
Masse 575.00 kg
Trockenmasse 530.00 kg
Gesamtmasse 575.00 kg
Länge 0.30 m
Durchmesser 4.10 m
Spannweite 29.00 m
Form Box + pan
Hersteller SPXS
Bus-Typ Starlink V2MO
Phasenstatus In Orbit
Besitzer/Staat SPXS/US

Große Konstellationen

Loading constellations...